• In Italy
  • List of Countries
  • For 7 days
  • Water Temperature
  • Satellite Maps
  • Weather Map
  • Weather Widgets
  • user-avatar
    Login

    Hourly Weather Preston

    Today, 22 January, Monday

    Time Temperature Precipitation Wind Pressure Humidity
    00:00 +4°C° 0 mm 7 mps 750 mmHg 90%
    01:00 +4°C° 0 mm 7 mps 750 mmHg 90%
    02:00 +4°C° 0 mm 7 mps 750 mmHg 90%
    03:00 +4°C° 0 mm 7 mps 751 mmHg 90%
    04:00 +4°C° 0 mm 7 mps 751 mmHg 90%
    05:00 +4°C° 0 mm 6 mps 751 mmHg 90%
    06:00 +4°C° 0 mm 6 mps 752 mmHg 90%
    07:00 +4°C° 0 mm 6 mps 752 mmHg 89%
    08:00 +4°C° 0 mm 6 mps 752 mmHg 89%
    09:00 +4°C° 0 mm 6 mps 753 mmHg 89%
    10:00 +4°C° 0 mm 6 mps 754 mmHg 88%
    11:00 +5°C° 0 mm 7 mps 754 mmHg 87%
    12:00 +5°C° 0 mm 7 mps 755 mmHg 86%
    13:00 +5°C° 0 mm 7 mps 755 mmHg 85%
    14:00 +5°C° 0 mm 6 mps 756 mmHg 84%
    15:00 +5°C° 0 mm 6 mps 756 mmHg 83%
    16:00 +5°C° 0 mm 6 mps 756 mmHg 83%
    17:00 +6°C° 0 mm 5 mps 757 mmHg 83%
    18:00 +5°C° 0 mm 5 mps 757 mmHg 83%
    19:00 +5°C° 0 mm 5 mps 757 mmHg 84%
    20:00 +5°C° 0 mm 5 mps 758 mmHg 86%
    21:00 +5°C° 0 mm 5 mps 758 mmHg 88%
    22:00 +5°C° 0 mm 5 mps 758 mmHg 89%
    23:00 +3°C° 0 mm 5 mps 758 mmHg 90%

    Tomorrow, 23 January, Tuesday

    Time Temperature Precipitation Wind Pressure Humidity
    00:00 +3°C° 0 mm 5 mps 757 mmHg 91%
    01:00 +3°C° 0 mm 5 mps 757 mmHg 92%
    02:00 +3°C° 0 mm 5 mps 756 mmHg 92%
    03:00 +3°C° 0 mm 6 mps 756 mmHg 92%
    04:00 +3°C° 0 mm 6 mps 755 mmHg 92%
    05:00 +4°C° 0 mm 6 mps 754 mmHg 91%
    06:00 +4°C° 0 mm 7 mps 753 mmHg 91%
    07:00 +5°C° 0.1 mm 7 mps 753 mmHg 92%
    08:00 +6°C° 0.1 mm 7 mps 752 mmHg 93%
    09:00 +8°C° 0.1 mm 7 mps 752 mmHg 94%
    10:00 +7°C° 0.1 mm 8 mps 752 mmHg 92%
    11:00 +9°C° 0.1 mm 8 mps 752 mmHg 91%
    12:00 +10°C° 0.1 mm 8 mps 752 mmHg 90%
    13:00 +10°C° 0.1 mm 8 mps 752 mmHg 90%
    14:00 +10°C° 0.1 mm 8 mps 751 mmHg 89%
    15:00 +10°C° 0.1 mm 7 mps 751 mmHg 88%
    16:00 +10°C° 0.4 mm 7 mps 751 mmHg 89%
    17:00 +9°C° 0.4 mm 7 mps 752 mmHg 89%
    18:00 +9°C° 0.4 mm 7 mps 752 mmHg 90%
    19:00 +9°C° 0.2 mm 7 mps 751 mmHg 90%
    20:00 +8°C° 0.2 mm 6 mps 751 mmHg 89%
    21:00 +8°C° 0.2 mm 6 mps 751 mmHg 89%
    22:00 +8°C° 0.3 mm 7 mps 751 mmHg 88%
    23:00 +7°C° 0.3 mm 8 mps 750 mmHg 87%

    Day after tomorrow, 24 January, Wednesday

    Time Temperature Precipitation Wind Pressure Humidity
    00:00 +7°C° 0.3 mm 9 mps 749 mmHg 86%
    01:00 +8°C° 0.2 mm 10 mps 748 mmHg 84%
    02:00 +9°C° 0.2 mm 11 mps 746 mmHg 83%
    03:00 +9°C° 0.2 mm 12 mps 745 mmHg 82%
    04:00 +9°C° 1.5 mm 12 mps 744 mmHg 83%
    05:00 +9°C° 1.5 mm 13 mps 743 mmHg 84%
    06:00 +9°C° 1.5 mm 13 mps 743 mmHg 85%
    07:00 +8°C° 1 mm 12 mps 743 mmHg 82%
    08:00 +7°C° 1 mm 11 mps 744 mmHg 79%
    09:00 +6°C° 1 mm 10 mps 745 mmHg 76%
    10:00 +6°C° 0.1 mm 10 mps 745 mmHg 72%
    11:00 +6°C° 0.1 mm 10 mps 746 mmHg 69%
    12:00 +6°C° 0.1 mm 10 mps 746 mmHg 65%
    13:00 +6°C° 0 mm 9 mps 746 mmHg 66%
    14:00 +6°C° 0 mm 9 mps 746 mmHg 67%
    15:00 +6°C° 0 mm 9 mps 746 mmHg 68%
    16:00 +6°C° 0.2 mm 9 mps 746 mmHg 71%
    17:00 +5°C° 0.2 mm 8 mps 746 mmHg 74%
    18:00 +5°C° 0.2 mm 8 mps 747 mmHg 77%
    19:00 +5°C° 0.2 mm 8 mps 747 mmHg 77%
    20:00 +4°C° 0.2 mm 8 mps 747 mmHg 77%
    21:00 +4°C° 0.2 mm 8 mps 747 mmHg 76%
    22:00 +4°C° 0.2 mm 8 mps 747 mmHg 77%
    23:00 +2°C° 0.2 mm 8 mps 747 mmHg 78%

    25 January, Thursday

    Time Temperature Precipitation Wind Pressure Humidity
    00:00 +3°C° 0.2 mm 7 mps 747 mmHg 79%
    01:00 +3°C° 0.2 mm 7 mps 747 mmHg 79%
    02:00 +2°C° 0.2 mm 8 mps 747 mmHg 79%
    03:00 +2°C° 0.2 mm 8 mps 747 mmHg 79%
    04:00 +2°C° 0.1 mm 8 mps 746 mmHg 79%
    05:00 +2°C° 0.1 mm 8 mps 746 mmHg 79%
    06:00 +2°C° 0.1 mm 8 mps 745 mmHg 79%
    07:00 +2°C° 0.2 mm 8 mps 745 mmHg 79%
    08:00 +2°C° 0.2 mm 8 mps 745 mmHg 78%
    09:00 +2°C° 0.2 mm 9 mps 745 mmHg 78%
    10:00 +3°C° 0.2 mm 9 mps 745 mmHg 74%
    11:00 +5°C° 0.2 mm 8 mps 745 mmHg 71%
    12:00 +5°C° 0.2 mm 8 mps 745 mmHg 68%
    13:00 +5°C° 0.2 mm 8 mps 746 mmHg 68%
    14:00 +5°C° 0.2 mm 8 mps 746 mmHg 68%
    15:00 +5°C° 0.2 mm 8 mps 746 mmHg 69%
    16:00 +4°C° 0.1 mm 8 mps 746 mmHg 71%
    17:00 +4°C° 0.1 mm 8 mps 747 mmHg 73%
    18:00 +4°C° 0.1 mm 8 mps 748 mmHg 75%
    19:00 +2°C° 0.1 mm 8 mps 748 mmHg 77%
    20:00 +2°C° 0.1 mm 8 mps 749 mmHg 78%
    21:00 +2°C° 0.1 mm 8 mps 750 mmHg 79%
    22:00 +2°C° 0.1 mm 8 mps 751 mmHg 80%
    23:00 +2°C° 0.1 mm 8 mps 751 mmHg 81%

    26 January, Friday

    Time Temperature Precipitation Wind Pressure Humidity
    00:00 +3°C° 0.1 mm 7 mps 752 mmHg 82%
    01:00 +3°C° 0.1 mm 7 mps 753 mmHg 83%
    02:00 +3°C° 0.1 mm 6 mps 753 mmHg 84%
    03:00 +3°C° 0.1 mm 6 mps 754 mmHg 85%
    04:00 +2°C° 0 mm 5 mps 755 mmHg 85%
    05:00 +2°C° 0 mm 5 mps 756 mmHg 86%
    06:00 +3°C° 0 mm 4 mps 757 mmHg 86%
    07:00 +1°C° 0 mm 4 mps 758 mmHg 85%
    08:00 +2°C° 0 mm 3 mps 759 mmHg 84%
    09:00 +2°C° 0 mm 3 mps 760 mmHg 83%
    10:00 +3°C° 0 mm 3 mps 761 mmHg 79%
    11:00 +4°C° 0 mm 3 mps 761 mmHg 75%
    12:00 +7°C° 0 mm 3 mps 762 mmHg 71%
    13:00 +5°C° 0 mm 3 mps 763 mmHg 73%
    14:00 +5°C° 0 mm 3 mps 763 mmHg 75%
    15:00 +5°C° 0 mm 4 mps 764 mmHg 77%
    16:00 +5°C° 0 mm 3 mps 764 mmHg 79%
    17:00 +4°C° 0 mm 3 mps 765 mmHg 82%
    18:00 +4°C° 0 mm 2 mps 765 mmHg 84%
    19:00 +4°C° 0 mm 2 mps 766 mmHg 85%
    20:00 +4°C° 0 mm 2 mps 766 mmHg 86%
    21:00 +3°C° 0 mm 2 mps 767 mmHg 87%
    22:00 +3°C° 0 mm 2 mps 767 mmHg 88%
    23:00 +3°C° 0 mm 2 mps 768 mmHg 89%

    27 January, Saturday

    Time Temperature Precipitation Wind Pressure Humidity
    00:00 +4°C° 0 mm 1 mps 768 mmHg 90%
    01:00 +3°C° 0 mm 2 mps 768 mmHg 90%
    02:00 +3°C° 0 mm 2 mps 768 mmHg 91%
    03:00 +3°C° 0 mm 2 mps 768 mmHg 91%
    04:00 +2°C° 0 mm 3 mps 768 mmHg 91%
    05:00 +2°C° 0 mm 3 mps 768 mmHg 91%
    06:00 +2°C° 0 mm 3 mps 768 mmHg 91%
    07:00 +2°C° 0 mm 3 mps 768 mmHg 91%
    08:00 +1°C° 0 mm 4 mps 768 mmHg 91%
    09:00 +1°C° 0 mm 4 mps 768 mmHg 91%
    10:00 +3°C° 0.1 mm 4 mps 768 mmHg 90%
    11:00 +3°C° 0.1 mm 5 mps 768 mmHg 89%
    12:00 +5°C° 0.1 mm 5 mps 768 mmHg 88%
    13:00 +6°C° 0.5 mm 5 mps 768 mmHg 90%
    14:00 +6°C° 0.5 mm 5 mps 767 mmHg 92%
    15:00 +6°C° 0.5 mm 5 mps 767 mmHg 95%
    16:00 +7°C° 0.4 mm 5 mps 767 mmHg 95%
    17:00 +7°C° 0.4 mm 5 mps 768 mmHg 95%
    18:00 +8°C° 0.4 mm 5 mps 768 mmHg 96%
    19:00 +8°C° 0.1 mm 6 mps 768 mmHg 96%
    20:00 +8°C° 0.1 mm 6 mps 769 mmHg 96%
    21:00 +8°C° 0.1 mm 6 mps 769 mmHg 96%
    22:00 +8°C° 0 mm 6 mps 769 mmHg 96%
    23:00 +9°C° 0 mm 6 mps 770 mmHg 96%
    Show more